[[{"header":{"parameterUnit":"m.s-1","parameterCategory":1,"la1":30.2991,"la2":30.254,"lo1":-89.0895,"lo2":-89.0444,"dy":0.0017,"dx":0.0017,"nx":28,"ny":28,"refTime":"2024-03-19T09:00:00:Z","depth":0,"parameterNumber":2,"parameterNumberName":"U-component_of_WINDS"},"data":[0,0,0,0,0,0,0,0,0,0,0,0,0,0,0,0,0,0,0,0,0,0,0,0,0,0,0,0,0,0,0,0,0,0,0,0,0,0,0,0,0,0,0,0,0,0,0,0,0,0,0,0,0,0,0,0,0,0,2.8361,2.8362,0,2.8422,2.8423,2.8424,2.8407,2.8406,2.8405,2.8404,2.8464,2.8467,2.8469,0,0,0,0,0,0,0,0,0,0,0,0,0,2.8226,2.8228,2.8361,2.8362,2.8363,2.8422,2.8423,2.8424,2.8408,2.8406,2.8405,2.8403,2.8463,2.8466,2.847,0,0,0,0,0,0,0,0,0,0,0,0,0,2.8285,2.8229,2.8361,2.8362,2.8362,2.8422,2.8423,2.8424,2.8408,2.8406,2.8404,2.8402,2.8462,2.8466,2.847,2.8532,0,0,2.8483,2.8485,0,0,0,0,0,0,0,0,2.8282,2.829,2.8361,2.8362,2.8363,2.8405,2.8397,2.846,2.8408,2.8391,2.8404,2.8402,2.8446,2.8451,2.8467,2.8535,2.8538,2.8483,2.8486,2.8487,2.8489,0,0,0,0,0,0,0,2.8278,2.8288,2.8385,2.8362,2.8363,2.8357,2.8364,2.8409,2.8428,2.8392,2.8391,2.8398,2.8446,2.8463,2.8468,2.8539,2.8483,2.8487,2.8489,2.8491,2.8656,2.8658,0,0,0,0,0,0,2.8273,2.8284,2.8383,2.8387,2.8317,2.8361,2.8369,2.8393,2.8427,2.8431,2.84,2.8397,2.8457,2.8463,2.847,2.8541,2.8487,2.8491,2.8494,2.8654,2.8657,2.8659,0,0,0,0,0,0,2.8271,2.8283,2.8381,2.8335,2.8348,2.8366,2.8394,2.8396,2.8412,2.8433,2.8436,2.8414,2.8455,2.8464,2.8516,2.8543,2.8493,2.8497,2.8652,2.8655,2.8658,2.8687,0,0,0,0,0,0,2.8267,2.8282,2.8307,2.8336,2.835,2.8427,2.8396,2.8398,2.842,2.8417,2.8447,2.845,2.8455,2.851,2.852,2.8548,2.85,2.865,2.8653,2.8657,2.8684,2.869,2.8696,0,0,0,0,0,2.8262,2.8313,2.8308,2.832,2.8382,2.8429,2.8437,2.8442,2.8422,2.8446,2.8459,2.8449,2.8539,2.8515,2.8527,2.8556,2.8648,2.8652,2.8657,2.8681,2.8689,2.8696,0,0,0,0,0,0,2.8286,2.8317,2.8312,2.8374,2.8399,2.8426,2.8457,2.8451,2.8481,2.8478,2.8481,2.8488,2.854,2.8554,2.8527,2.8616,2.859,2.8597,2.8605,2.8613,2.8619,2.8614,2.8503,0,0,0,0,0,2.8299,2.8336,2.836,2.8412,2.8425,2.8439,2.846,2.8461,2.8487,2.8497,2.8514,2.8538,2.8572,2.8594,2.8626,2.8686,2.869,2.8712,2.8718,2.8723,2.8728,2.8757,2.8766,2.8673,2.8673,2.8673,0,0,2.8325,2.8346,2.8369,2.8418,2.8437,2.8473,2.8448,2.8488,2.8514,2.8503,2.8552,2.8565,2.8593,2.8648,2.8673,2.8661,2.8755,2.8729,2.8733,2.8735,2.8762,2.8771,2.8779,2.8676,2.8675,2.8675,0,0,2.839,2.8412,2.8456,2.8476,2.8505,2.8514,2.8524,2.8552,2.856,2.8609,2.8601,2.8631,2.869,2.8708,2.8725,2.8795,2.8786,2.8806,2.8838,2.8866,2.8873,2.888,2.8901,2.8909,2.8811,2.8811,2.8811,0,2.8419,2.8474,2.8479,2.8519,2.8539,2.8531,2.8573,2.8592,2.8631,2.8644,2.863,2.8701,2.8719,2.8776,2.8793,2.8808,2.8818,2.8801,2.8872,2.8879,2.8885,2.8905,2.8913,2.8813,2.8813,2.8813,2.8812,0,2.8505,2.8544,2.8575,2.8612,2.8636,2.8677,2.8686,2.871,2.8709,2.8718,2.8766,2.8787,2.8822,2.8836,2.8836,2.8893,2.8884,2.8871,2.8845,2.8895,2.8914,2.8922,2.8816,2.8815,2.8814,2.8814,0,0,2.8588,2.8625,2.8636,2.8651,2.8682,2.8711,2.8751,2.8784,2.8802,2.8829,2.886,2.8909,2.8896,2.8916,2.8917,2.8942,2.8991,2.8926,2.8927,2.8934,2.9051,2.9058,2.9067,2.8986,2.8988,2.8989,2.9047,0,2.8653,2.8723,2.8728,2.879,2.8823,2.8815,2.8849,2.887,2.888,2.8908,2.8918,2.8951,2.8934,2.8945,2.8969,2.898,2.9014,2.8976,2.9012,2.9014,2.9003,2.9077,2.9086,2.9139,2.9055,2.9056,2.9057,0,2.8739,2.8767,2.8832,2.8855,2.8869,2.89,2.8929,2.8958,2.8981,2.8985,2.9006,2.9003,2.9041,2.9015,2.9066,2.904,2.9055,2.9063,2.9065,2.9066,2.9036,2.9077,2.9157,2.9164,2.907,2.9069,2.9068,0,2.8787,2.8842,2.8887,2.8901,2.893,2.8951,2.8964,2.8985,2.9004,2.903,2.9041,2.9071,2.9087,2.9109,2.9114,2.9095,2.9163,2.9139,2.9165,2.9165,2.9178,2.9177,2.9258,2.9193,2.9193,2.9193,2.9193,0,2.8858,2.8898,2.8909,2.8936,2.8979,2.8984,2.9026,2.9037,2.9056,2.9084,2.9079,2.9105,2.9111,2.9138,2.9141,2.918,2.9189,2.9191,2.9191,2.919,2.9189,2.9198,2.9193,2.9195,2.9195,2.9194,2.9194,0,2.8919,2.8928,2.8976,2.9,2.9006,2.9036,2.9055,2.908,2.9089,2.9124,2.9132,2.9145,2.9176,2.9183,2.922,2.9222,2.9268,2.9266,2.926,2.9258,2.9284,2.928,2.9371,2.9382,2.9313,2.9313,2.9314,0,2.8962,2.8992,2.9018,2.9036,2.9049,2.908,2.9098,2.9103,2.9123,2.915,2.9171,2.9201,2.9225,2.9275,2.9286,2.9313,2.931,2.934,2.9314,2.9311,2.9306,2.9303,2.9305,2.9344,2.9345,2.9346,2.9346,0,2.9036,2.9038,2.9066,2.9095,2.9117,2.914,2.9161,2.9176,2.9184,2.9205,2.9237,2.9255,2.9292,2.9321,2.9348,2.936,2.9353,2.9354,2.9361,2.9359,2.9353,2.9353,2.927,2.9352,2.9351,2.9351,2.9351,2.935,2.9087,2.9112,2.9133,2.9163,2.9179,2.9199,2.9222,2.9233,2.9259,2.929,2.9291,2.9324,2.9343,2.9379,2.9392,2.9417,2.9407,2.9418,2.9421,2.9422,2.9423,2.9351,2.9422,2.9422,2.9422,2.9422,2.9422,0,2.9158,2.917,2.9198,2.9227,2.925,2.9243,2.9266,2.9285,2.9314,2.9333,2.9357,2.9391,2.9418,2.9431,2.9458,2.9475,2.9472,2.9481,2.9479,2.9481,2.9432,2.9421,2.9483,2.9483,2.9483,2.9483,2.9483,2.9483,2.9197,2.9237,2.9242,2.9289,2.9301,2.9334,2.9347,2.9364,2.9379,2.9417,2.944,2.9448,2.9464,2.9491,2.9515,2.9518,2.9527,2.9536,2.9538,2.9491,2.9485,2.9479,2.9469,2.9539,2.9539,2.9584,2.9585,2.9585]},{"header":{"parameterUnit":"m.s-1","parameterCategory":1,"la1":30.2991,"la2":30.254,"lo1":-89.0895,"lo2":-89.0444,"dy":0.0017,"dx":0.0017,"nx":28,"ny":28,"refTime":"2024-03-19T09:00:00:Z","depth":0,"parameterNumber":3,"parameterNumberName":"V-component_of_WINDS"},"data":[0,0,0,0,0,0,0,0,0,0,0,0,0,0,0,0,0,0,0,0,0,0,0,0,0,0,0,0,0,0,0,0,0,0,0,0,0,0,0,0,0,0,0,0,0,0,0,0,0,0,0,0,0,0,0,0,0,0,2.4787,2.4787,0,2.4775,2.4775,2.4775,2.4734,2.4733,2.4732,2.4731,2.4718,2.4718,2.4719,0,0,0,0,0,0,0,0,0,0,0,0,0,2.4772,2.4773,2.4787,2.4787,2.4787,2.4775,2.4775,2.4775,2.4734,2.4733,2.4732,2.4731,2.4717,2.4718,2.4719,0,0,0,0,0,0,0,0,0,0,0,0,0,2.4771,2.4773,2.4787,2.4765,2.4763,2.4775,2.4775,2.4775,2.4734,2.4733,2.4732,2.473,2.4717,2.4718,2.4719,2.4751,0,0,2.4721,2.4721,0,0,0,0,0,0,0,0,2.4771,2.4772,2.4769,2.4767,2.4764,2.4755,2.4765,2.4767,2.4735,2.4745,2.4731,2.473,2.4731,2.4731,2.4731,2.475,2.475,2.4721,2.4722,2.4722,2.4722,0,0,0,0,0,0,0,2.4771,2.4772,2.4782,2.4769,2.4766,2.4755,2.4753,2.4765,2.4746,2.4744,2.4741,2.474,2.473,2.4731,2.4731,2.4749,2.4721,2.4722,2.4722,2.4722,2.4791,2.4792,0,0,0,0,0,0,2.4775,2.4772,2.4783,2.4782,2.4765,2.4756,2.4755,2.4759,2.4746,2.4742,2.4742,2.4739,2.473,2.473,2.473,2.4765,2.4722,2.4723,2.4723,2.479,2.4791,2.4793,0,0,0,0,0,0,2.4775,2.4776,2.4783,2.4776,2.4776,2.4758,2.4764,2.476,2.4761,2.4744,2.474,2.4746,2.4729,2.4729,2.4745,2.4764,2.4723,2.4724,2.4788,2.479,2.4792,2.4835,0,0,0,0,0,0,2.4775,2.4776,2.4789,2.4777,2.4777,2.48,2.4765,2.476,2.4762,2.4758,2.4747,2.4744,2.4728,2.4745,2.4746,2.4764,2.4724,2.4786,2.4789,2.4791,2.4832,2.4839,2.4844,0,0,0,0,0,2.4774,2.4802,2.479,2.4792,2.4793,2.4801,2.4801,2.4782,2.4764,2.4776,2.4765,2.4744,2.4762,2.4747,2.4748,2.4766,2.4785,2.4788,2.4791,2.483,2.4837,2.4844,0,0,0,0,0,0,2.4817,2.48,2.4787,2.4812,2.4808,2.4794,2.4809,2.4791,2.4793,2.4789,2.4765,2.4763,2.4782,2.4776,2.4759,2.4795,2.477,2.4773,2.4798,2.4806,2.4812,2.4812,2.4725,0,0,0,0,0,2.483,2.4838,2.4823,2.4847,2.4845,2.4828,2.4831,2.4816,2.4811,2.4809,2.4799,2.4795,2.4799,2.4802,2.4805,2.4831,2.4827,2.4845,2.4851,2.4856,2.4858,2.4869,2.4876,2.4803,2.4803,2.4803,0,0,2.4855,2.4847,2.4854,2.4855,2.485,2.4859,2.4827,2.4838,2.4843,2.4811,2.4825,2.4818,2.4811,2.4832,2.4841,2.4827,2.4878,2.4859,2.4864,2.4864,2.4873,2.488,2.4886,2.4805,2.4805,2.4804,0,0,2.4906,2.4902,2.492,2.4916,2.4909,2.4897,2.4901,2.4889,2.4883,2.4897,2.4872,2.4878,2.4887,2.4882,2.4881,2.4928,2.4908,2.493,2.496,2.4971,2.4977,2.4982,2.4997,2.5003,2.4933,2.4933,2.4933,0,2.4939,2.4951,2.4931,2.4943,2.4943,2.4914,2.4931,2.4928,2.4923,2.4923,2.4909,2.4917,2.491,2.4928,2.494,2.4941,2.4943,2.493,2.4978,2.4983,2.4987,2.5001,2.5007,2.4935,2.4935,2.4935,2.4935,0,2.499,2.4999,2.5014,2.5009,2.5011,2.5026,2.5007,2.5011,2.4996,2.4985,2.4999,2.499,2.4989,2.4993,2.4979,2.5009,2.5,2.4983,2.4956,2.4997,2.5009,2.5014,2.4939,2.4938,2.4937,2.4937,0,0,2.5068,2.5051,2.5057,2.5053,2.5043,2.5049,2.5061,2.5061,2.5064,2.5061,2.5069,2.5076,2.5059,2.5058,2.5043,2.5053,2.5088,2.5033,2.5032,2.5042,2.5117,2.5129,2.5136,2.5075,2.5076,2.5077,2.5117,0,2.5114,2.5135,2.5116,2.514,2.5147,2.5119,2.5129,2.5123,2.5113,2.5116,2.5105,2.5109,2.5087,2.5085,2.5094,2.5082,2.5102,2.5079,2.5081,2.5081,2.5082,2.5143,2.5156,2.5194,2.5122,2.5122,2.5123,0,2.5172,2.517,2.5195,2.5181,2.5183,2.5193,2.519,2.5194,2.5186,2.5178,2.5175,2.5157,2.5167,2.5142,2.5154,2.5138,2.5138,2.5132,2.5133,2.5131,2.5104,2.5141,2.5206,2.5211,2.5131,2.513,2.513,0,2.5223,2.5228,2.5242,2.524,2.5225,2.5232,2.5226,2.5217,2.5218,2.5215,2.5214,2.5213,2.5212,2.5211,2.5192,2.5176,2.5205,2.5179,2.5197,2.5197,2.5203,2.5203,2.5268,2.5206,2.5206,2.5206,2.5206,0,2.5276,2.5291,2.5265,2.5274,2.5289,2.5267,2.5283,2.5274,2.5266,2.5271,2.5248,2.5253,2.5229,2.5231,2.5216,2.5227,2.5227,2.5219,2.5215,2.5221,2.5221,2.5219,2.5215,2.5207,2.5207,2.5207,2.5206,0,2.5336,2.5319,2.5332,2.5317,2.5313,2.5325,2.5311,2.5318,2.5305,2.5312,2.5313,2.5293,2.5295,2.5276,2.5274,2.5264,2.528,2.5272,2.5283,2.528,2.5297,2.5295,2.5362,2.5368,2.5305,2.5305,2.5306,0,2.537,2.5381,2.5366,2.5368,2.5363,2.5367,2.5366,2.5345,2.5346,2.5336,2.5344,2.5343,2.5342,2.5345,2.533,2.5327,2.5318,2.5341,2.5317,2.5322,2.5316,2.5315,2.5314,2.5346,2.5347,2.5347,2.5348,0,2.5431,2.5422,2.5423,2.542,2.5421,2.5418,2.5413,2.5416,2.5392,2.5394,2.5395,2.5394,2.5391,2.539,2.5385,2.5377,2.5358,2.5356,2.5359,2.5364,2.5369,2.5365,2.5295,2.5354,2.5353,2.5353,2.5353,2.5352,2.5477,2.5485,2.5475,2.5476,2.547,2.5466,2.5471,2.5459,2.546,2.5456,2.5443,2.5446,2.5436,2.5427,2.5421,2.5422,2.541,2.5416,2.5417,2.5418,2.542,2.537,2.5421,2.5421,2.542,2.542,2.542,0,2.5535,2.5528,2.5529,2.5523,2.5523,2.5506,2.55,2.5501,2.5504,2.5496,2.5495,2.5495,2.5493,2.5478,2.5474,2.5478,2.5469,2.5477,2.5476,2.5474,2.5432,2.5428,2.5485,2.5485,2.5485,2.5485,2.5485,2.5485,2.5566,2.5577,2.5566,2.5573,2.5565,2.5568,2.5565,2.5561,2.5554,2.5556,2.5554,2.5544,2.5533,2.5528,2.5525,2.5521,2.5519,2.5531,2.5523,2.5484,2.5477,2.5471,2.5468,2.5531,2.5531,2.5564,2.5565,2.5565]}]]